Wind_Speed
22 25 29 23 20 21 20 19 18 19 19 20 20 19 18 17 16 14 13 11 10 9 8 7 6 5 4 4 4 4 3 2 3 3 3 4 5 4 7 7 6 7 8
23 27 28 25 21 21 21 20 18 17 17 17 18 18 18 16 15 14 13 11 10 8 7 6 5 4 4 3 3 3 2 2 1 1 2 2 2 3 4 6 7 8 8
25 28 26 25 23 21 20 20 18 17 17 16 16 17 17 17 15 13 12 10 9 8 6 5 4 3 3 2 1 1 0 1 1 1 1 2 1 3 2 4 6 6 7
25 25 25 25 23 21 21 20 19 19 19 18 18 18 17 16 14 13 12 11 9 7 6 4 3 3 2 1 1 1 2 3 3 2 0 2 2 1 1 2 4 5 6
23 24 24 23 23 21 21 20 20 20 20 20 19 18 17 15 15 14 12 10 9 7 6 5 4 2 1 0 1 2 2 2 4 4 2 2 4 2 1 3 2 1 2
20 22 23 22 21 21 20 20 20 19 20 19 18 18 17 15 14 13 11 10 8 7 6 5 3 2 1 1 2 2 3 3 4 4 3 3 5 5 3 5 6 4 3
20 20 20 21 21 21 20 18 19 21 20 19 18 17 15 14 13 11 10 8 7 6 5 4 3 1 1 3 3 4 4 4 5 5 3 2 4 5 6 6 7 6 5
20 20 20 20 21 20 20 23 22 21 20 18 16 15 15 15 14 13 12 10 9 7 4 3 3 2 3 4 5 5 5 4 5 5 4 2 2 5 5 5 5 5 6
19 21 20 20 18 20 21 21 21 21 20 17 15 15 15 14 13 13 12 10 9 7 5 4 4 6 6 6 6 5 5 3 3 4 4 4 1 4 6 7 4 7 7
22 21 20 20 20 23 22 20 20 19 17 17 16 15 16 17 15 13 12 12 9 6 2 4 8 7 6 6 5 5 4 4 3 3 4 5 4 4 5 7 8 9 11
25 23 22 21 21 25 22 20 20 19 18 17 17 18 17 15 13 12 11 8 7 5 7 19 11 7 5 4 3 4 4 4 3 2 3 5 7 8 7 8 9 10 12
29 25 24 23 22 25 24 23 22 19 19 18 17 16 16 14 13 11 10 10 9 7 6 9 7 4 3 1 3 4 4 4 3 2 2 2 3 7 8 7 6 6 13
30 28 27 24 24 25 25 25 22 22 20 18 16 16 17 15 12 10 10 10 9 8 6 6 5 4 1 1 2 3 3 3 3 3 5 12 18 16 13 10 9 7 7
36 30 28 27 26 26 26 26 25 23 22 21 19 19 17 15 12 11 12 10 7 6 6 5 4 3 1 0 2 2 2 3 3 4 5 9 12 12 10 5 5 8 10
37 33 31 29 30 27 25 27 27 24 22 21 20 20 18 15 13 12 11 9 7 7 7 6 5 4 3 1 1 2 2 2 3 2 3 3 3 3 4 4 2 7 10
37 35 33 31 29 29 30 29 26 23 21 20 19 17 15 15 13 13 11 10 10 9 8 7 6 5 4 3 3 3 3 3 3 3 4 4 5 5 4 5 7 7 9
38 35 35 32 29 28 26 25 25 23 20 17 16 15 15 14 13 13 12 11 11 11 9 8 6 5 5 5 4 4 3 2 2 3 4 5 7 7 7 6 7 8 11
37 39 35 33 31 29 28 27 25 22 19 17 15 15 15 15 14 13 13 13 12 11 9 8 8 7 7 7 7 6 5 3 2 2 4 6 6 7 8 8 6 6 7
35 36 37 35 33 31 29 27 24 22 20 17 16 16 16 16 15 15 14 13 12 11 9 8 8 6 8 9 9 9 8 5 3 3 4 5 6 7 7 6 6 5 5
36 37 39 36 35 34 31 30 27 25 22 19 17 17 17 17 16 16 15 14 12 10 10 9 8 10 10 12 13 12 9 5 3 3 4 6 7 8 7 6 5 5 5
39 40 43 41 39 38 37 35 33 30 26 21 20 20 20 19 18 17 15 14 12 11 11 11 10 11 15 16 15 13 9 5 3 4 6 7 7 7 6 5 6 6 7
43 44 45 43 42 41 39 37 35 31 26 23 22 21 19 18 18 16 15 14 13 12 10 10 9 12 16 18 14 10 8 4 4 4 5 7 9 9 9 10 10 10 10
45 47 47 46 43 41 39 37 33 29 26 26 25 24 22 22 20 17 15 14 13 12 10 10 10 12 15 17 15 9 6 6 9 3 3 6 8 10 11 11 11 11 11
47 46 49 47 45 41 39 37 36 35 35 33 28 23 21 19 17 15 14 13 11 11 11 10 10 12 14 17 17 18 12 6 7 6 4 3 4 7 9 10 10 10 10
47 49 50 49 46 41 39 37 36 36 33 27 25 24 23 21 19 18 16 14 13 11 10 9 10 12 15 16 18 17 16 13 11 7 9 10 4 4 6 10 9 8 10
43 49 52 49 46 42 38 37 38 35 31 28 27 26 24 22 20 19 17 15 13 11 10 9 10 11 12 14 14 13 11 12 13 11 10 15 7 3 3 8 9 9 8
Wind_Direction
175 173 175 172 176 177 176 174 172 167 160 156 154 156 156 156 157 160 163 163 157 149 145 142 144 141 134 119 106 96 85 71 76 84 86 93 82 85 71 62 60 48 43
175 171 173 173 177 178 178 179 179 178 172 167 163 162 163 164 167 166 165 162 157 160 158 156 155 147 142 140 130 129 117 90 85 102 121 138 96 39 104 80 60 49 50
178 173 174 174 178 180 181 181 182 183 183 181 178 173 170 171 170 170 167 165 164 161 164 168 172 174 170 169 182 152 57 306 297 129 192 201 163 63 134 87 63 46 47
174 175 177 178 182 185 185 186 186 187 187 186 182 178 175 171 169 171 172 171 169 169 175 185 198 201 218 244 289 326 307 289 288 303 267 261 261 306 111 152 65 51 41
176 177 178 180 184 189 191 192 193 192 188 184 183 181 179 176 177 179 177 176 179 186 196 203 211 204 204 272 18 15 349 306 290 290 296 269 265 265 35 192 97 34 45
182 182 183 183 185 190 193 196 195 193 189 186 187 186 183 184 183 185 185 187 192 200 208 207 197 200 122 7 21 18 12 359 324 311 285 262 265 271 247 225 227 247 251
180 183 184 185 189 189 186 182 188 190 190 190 190 186 183 184 185 189 192 201 210 210 215 218 187 240 4 340 353 358 357 354 334 322 321 254 244 259 263 242 249 262 255
188 184 183 182 185 190 185 190 193 193 194 194 192 189 190 192 191 193 192 197 207 209 200 255 275 322 325 331 336 340 338 343 335 325 328 311 211 228 239 237 253 271 273
196 190 196 192 190 187 188 196 196 197 198 201 202 203 203 201 199 200 197 194 196 207 213 244 292 298 307 314 316 330 332 335 329 325 324 316 256 231 236 241 249 270 276
206 208 208 208 213 213 191 198 199 203 202 205 206 209 207 205 204 201 204 205 205 207 238 284 282 288 292 300 314 323 326 326 321 312 313 311 300 265 247 248 245 256 257
210 213 213 210 208 194 201 203 204 203 201 206 210 212 209 206 204 203 210 222 226 238 225 253 261 273 281 287 316 339 344 338 334 312 290 292 293 292 280 270 270 271 269
207 210 210 205 205 207 202 203 204 207 211 219 218 213 209 206 207 212 228 239 232 236 220 228 243 247 253 314 4 1 349 352 1 33 38 325 336 28 17 350 319 300 274
208 211 209 209 207 209 210 210 213 219 215 210 214 220 219 220 220 227 232 230 223 220 224 215 210 197 176 40 15 356 5 20 44 81 89 85 93 87 79 68 53 41 22
204 209 215 214 216 213 218 223 218 208 207 210 217 228 227 234 230 230 227 225 220 211 209 197 176 172 159 325 348 18 31 38 69 89 114 110 113 114 110 88 43 27 27
209 207 211 213 218 217 212 210 210 211 211 217 219 222 228 239 235 223 215 220 212 205 195 180 176 182 188 181 131 88 70 67 67 68 83 93 105 144 114 113 97 52 23
214 211 209 211 215 215 207 206 209 212 217 223 227 232 232 230 225 219 214 208 200 193 186 182 187 182 171 154 149 134 124 95 64 51 37 28 23 19 21 25 50 37 25
216 211 207 210 215 213 211 209 209 215 217 222 227 228 224 216 213 215 209 202 193 189 186 187 185 174 168 155 153 144 132 100 60 40 24 16 7 1 6 6 7 15 34
212 208 207 209 215 218 216 216 212 211 214 214 215 212 213 214 211 207 203 195 190 188 191 189 186 177 170 168 170 166 165 148 120 63 25 6 360 359 355 358 359 4 15
214 210 209 211 215 215 213 212 212 211 209 213 212 209 209 209 207 203 197 193 189 189 189 187 181 188 184 177 174 167 160 148 120 69 28 15 9 5 1 7 11 9 11
219 213 214 212 212 213 211 213 211 210 212 209 212 209 205 202 202 199 193 190 189 186 188 191 198 190 189 187 178 168 154 137 105 66 39 26 16 11 6 1 354 2 10
222 217 214 213 210 211 211 208 206 207 207 208 205 203 200 196 196 196 192 188 185 186 192 194 193 192 185 189 186 155 141 131 105 66 50 35 27 27 27 26 29 26 20
221 217 216 214 214 212 211 210 209 205 202 204 203 202 199 199 195 194 192 189 186 188 192 195 199 196 195 188 189 179 162 154 133 80 55 45 45 51 58 59 57 52 43
222 219 217 214 212 211 208 210 208 207 205 201 202 201 194 190 192 192 192 188 186 186 193 200 207 206 205 201 203 199 177 192 174 135 90 67 67 62 56 53 52 52 51
228 221 219 213 210 211 213 215 216 214 208 204 201 196 196 198 192 192 190 190 189 191 194 199 205 211 217 220 217 220 227 227 187 159 153 106 87 70 56 46 37 38 44
226 219 216 211 210 211 214 218 218 217 213 205 196 194 194 192 190 191 190 192 193 191 192 197 206 217 221 223 229 233 233 230 221 199 170 172 167 101 60 42 33 33 32
228 220 216 210 209 210 213 216 219 217 210 203 198 192 192 193 192 192 192 189 186 189 193 198 203 206 208 214 221 228 224 210 215 206 185 171 177 149 57 42 38 33 24
Height
1486 1489 1493 1497 1501 1505 1507 1510 1512 1513 1513 1514 1515 1517 1519 1521 1523 1525 1527 1528 1530 1531 1531 1532 1533 1534 1534 1534 1534 1534 1534 1535 1535 1535 1535 1535 1535 1535 1535 1536 1536 1537 1537
1485 1488 1492 1497 1500 1504 1507 1509 1511 1512 1513 1514 1516 1517 1519 1521 1523 1525 1527 1528 1529 1530 1531 1532 1533 1534 1534 1534 1534 1534 1534 1534 1535 1535 1535 1535 1535 1535 1536 1536 1537 1538 1538
1483 1487 1492 1496 1500 1503 1506 1509 1511 1512 1513 1514 1515 1517 1519 1521 1522 1524 1526 1527 1529 1530 1531 1532 1533 1533 1534 1533 1533 1533 1533 1534 1534 1535 1535 1535 1535 1536 1537 1537 1538 1538 1538
1481 1487 1491 1495 1499 1503 1506 1509 1511 1512 1513 1514 1515 1517 1520 1521 1523 1524 1525 1527 1528 1530 1531 1532 1533 1533 1533 1533 1533 1533 1533 1533 1533 1534 1534 1535 1534 1536 1536 1538 1538 1538 1538
1483 1486 1490 1494 1497 1502 1506 1508 1510 1511 1513 1514 1516 1518 1519 1521 1522 1524 1525 1527 1527 1529 1530 1531 1531 1531 1531 1532 1533 1533 1533 1533 1532 1533 1534 1534 1534 1536 1537 1538 1538 1538 1538
1485 1488 1489 1493 1497 1500 1504 1507 1509 1511 1512 1514 1517 1518 1519 1521 1522 1524 1525 1526 1527 1528 1529 1529 1530 1531 1530 1532 1533 1533 1533 1532 1532 1532 1533 1533 1534 1535 1537 1537 1536 1537 1538
1485 1489 1491 1494 1497 1500 1502 1505 1508 1510 1511 1513 1515 1517 1518 1520 1521 1524 1525 1526 1527 1528 1529 1530 1528 1530 1530 1532 1531 1532 1532 1532 1532 1532 1532 1532 1534 1534 1535 1536 1536 1536 1537
1484 1488 1491 1493 1496 1500 1502 1503 1506 1509 1511 1513 1515 1516 1518 1519 1520 1522 1523 1524 1526 1526 1528 1530 1529 1527 1529 1530 1531 1531 1531 1531 1531 1531 1531 1532 1532 1533 1534 1534 1535 1536 1537
1488 1487 1489 1493 1495 1498 1502 1504 1506 1507 1509 1512 1514 1515 1517 1519 1519 1521 1522 1523 1524 1526 1525 1529 1528 1526 1530 1529 1530 1530 1530 1530 1531 1531 1531 1531 1532 1533 1533 1533 1534 1535 1536
1487 1489 1491 1490 1494 1497 1500 1503 1505 1507 1508 1510 1513 1514 1515 1516 1518 1519 1521 1522 1524 1525 1526 1527 1528 1528 1528 1529 1529 1529 1529 1529 1530 1531 1531 1531 1531 1532 1532 1532 1533 1534 1534
1484 1487 1489 1491 1491 1494 1498 1500 1502 1503 1506 1508 1510 1512 1513 1515 1516 1518 1520 1522 1523 1525 1522 1526 1528 1528 1527 1528 1528 1528 1528 1528 1528 1529 1530 1531 1531 1531 1531 1531 1531 1532 1532
1481 1485 1488 1489 1491 1493 1494 1496 1499 1501 1504 1507 1510 1511 1511 1513 1515 1517 1519 1522 1523 1524 1523 1525 1526 1526 1526 1526 1526 1526 1527 1528 1528 1529 1529 1530 1531 1530 1530 1529 1528 1529 1528
1477 1482 1483 1487 1489 1491 1494 1493 1496 1500 1503 1505 1507 1509 1510 1512 1513 1516 1518 1521 1521 1522 1522 1523 1524 1524 1525 1525 1525 1526 1528 1528 1528 1528 1529 1531 1532 1531 1530 1530 1529 1527 1527
1470 1475 1480 1484 1485 1487 1488 1493 1495 1496 1499 1501 1503 1506 1509 1510 1512 1513 1517 1519 1520 1520 1521 1521 1522 1523 1524 1524 1524 1525 1526 1527 1528 1528 1528 1530 1530 1530 1530 1530 1530 1528 1526
1467 1470 1474 1478 1481 1482 1485 1487 1492 1494 1496 1498 1500 1502 1505 1508 1510 1512 1514 1517 1518 1519 1520 1520 1521 1522 1524 1524 1524 1524 1525 1527 1527 1527 1529 1529 1530 1529 1529 1528 1528 1527 1526
1464 1466 1472 1474 1476 1481 1478 1482 1487 1490 1493 1495 1498 1500 1502 1504 1507 1510 1511 1514 1515 1517 1519 1519 1520 1521 1522 1523 1523 1524 1526 1526 1527 1528 1529 1529 1529 1528 1527 1526 1526 1525 1523
1462 1466 1466 1471 1475 1478 1481 1481 1482 1485 1489 1492 1494 1496 1500 1502 1504 1507 1510 1512 1513 1515 1517 1518 1519 1520 1522 1522 1523 1524 1525 1526 1527 1528 1529 1528 1528 1527 1526 1525 1524 1523 1522
1452 1457 1464 1466 1468 1474 1476 1479 1481 1483 1486 1488 1491 1493 1496 1499 1502 1505 1507 1509 1511 1513 1516 1516 1518 1519 1520 1522 1523 1524 1526 1526 1528 1528 1528 1528 1527 1526 1525 1524 1523 1522 1521
1449 1457 1460 1462 1465 1468 1472 1476 1478 1481 1481 1486 1487 1488 1491 1496 1498 1501 1504 1507 1509 1511 1514 1516 1516 1517 1518 1521 1523 1525 1526 1527 1527 1527 1527 1527 1526 1524 1524 1524 1523 1522 1520
1447 1450 1454 1457 1462 1466 1467 1470 1474 1476 1480 1480 1484 1485 1486 1491 1495 1498 1501 1504 1507 1509 1512 1513 1515 1516 1518 1520 1522 1525 1525 1526 1526 1526 1526 1526 1524 1523 1524 1523 1522 1521 1519
1441 1444 1446 1449 1454 1459 1464 1465 1468 1470 1474 1478 1480 1482 1484 1486 1491 1496 1498 1501 1503 1507 1510 1511 1512 1514 1516 1519 1521 1524 1525 1526 1526 1526 1526 1525 1524 1524 1524 1523 1521 1519 1517
1430 1437 1440 1444 1448 1452 1457 1462 1463 1468 1470 1473 1476 1478 1482 1486 1489 1493 1496 1498 1500 1503 1506 1508 1509 1511 1514 1516 1518 1520 1523 1527 1526 1526 1525 1524 1524 1524 1524 1522 1520 1519 1517
1423 1428 1433 1437 1443 1447 1454 1457 1462 1466 1469 1470 1472 1474 1477 1481 1486 1490 1493 1496 1498 1500 1502 1505 1508 1509 1510 1513 1516 1518 1520 1521 1524 1525 1524 1524 1525 1525 1524 1522 1521 1519 1518
1417 1424 1428 1432 1437 1443 1450 1454 1457 1459 1460 1464 1468 1471 1475 1480 1483 1487 1491 1494 1497 1499 1501 1504 1505 1507 1509 1511 1513 1514 1516 1518 1518 1522 1524 1524 1525 1525 1524 1523 1522 1520 1519
1412 1416 1421 1426 1433 1437 1446 1452 1456 1458 1460 1464 1467 1468 1472 1476 1480 1483 1487 1491 1495 1497 1499 1501 1503 1505 1507 1509 1510 1511 1513 1514 1515 1517 1520 1523 1524 1525 1524 1524 1523 1522 1520
1404 1409 1414 1421 1427 1432 1440 1448 1452 1455 1458 1460 1464 1465 1468 1473 1477 1481 1484 1488 1491 1494 1497 1499 1501 1503 1504 1506 1507 1508 1510 1512 1512 1514 1516 1520 1523 1524 1524 1524 1523 1521 1519